Погода в Норе

Австралия     34°53′16″S   150°36′16″E
темп.,
°C
ветер,
м/с
пор.,
м/с
влажн.,
%
обл.,
%
осадки,
мм/ч
давл.,
гПа
погр.,
м
15 мая, сб
сб1501:00+10зсз413610 0.0 1013901
04:00+10зсз4136095 0.0 10121079
07:00+7сз11754 0.0 101229
10:00+12зсз415566 0.0 10111804
13:00+15з410403 0.0 10092369
16:00+10зюз41468100 0.4 10121798
19:00+10юз312566 0.3 10161458
22:00+7зюз26677 0.3 1019403
16 мая, вс
вс1601:00+4зсз23782 0.0 102059
04:00+3зсз23800 0.0 102156
07:00+3зсз23810 0.0 102259
10:00+12зсз24430 0.0 1022616
13:00+15зсз35315 0.0 10191526
16:00+13зсз37461 0.0 10181129
19:00+9зсз412560 0.0 1020648
22:00+8зсз412610 0.0 1020472
17 мая, пн
пн1701:00+9зсз413610 0.0 1020538
04:00+9з413631 0.0 1020466
07:00+6зсз24792 0.0 102398
10:00+14з14501 0.0 1024647
13:00+17юв234018 0.0 10231878
16:00+14юв246123 0.0 1024380
19:00+9з118222 0.0 102719
22:00+8зсз218511 0.0 102832
18 мая, вт
вт1801:00+6зсз21883 0.0 102834
04:00+6зсз22891 0.0 102849
07:00+5зсз23860 0.0 102955
10:00+14сз25500 0.0 1029575
13:00+18сз24360 0.0 10261584
16:00+16з12530 0.0 102683
19:00+9з11780 0.0 102820
22:00+7зсз22870 0.0 102940
19 мая, ср
ср1901:00+6зсз22890 0.0 102938
04:00+6зсз22890 0.0 102838
07:00+6зсз22890 0.0 102940
10:00+15сз23530 0.0 1029459
13:00+19ссз23370 0.0 10261351
16:00+17с11590 0.0 102546
19:00+10зсз22820 0.0 102731
22:00+8зсз23895 0.0 102855